Theta_e
319 318 317 316 315 315 315 316 316 314 316 317 318 320 324 323 324 323 323 323 324 326 328 329 329 329 331 332 331 331 330 331 331 331 331 331 332 332 332 332 332 332 332
317 317 315 314 313 312 313 314 314 313 318 319 322 321 322 321 321 321 321 319 319 320 322 324 325 326 327 328 329 328 327 327 326 329 329 329 329 328 329 329 331 332 332
316 315 314 313 311 309 310 312 310 317 319 320 318 320 320 321 321 320 320 320 317 314 315 318 319 321 322 324 323 322 322 323 324 326 326 325 326 325 327 327 328 328 330
314 314 313 310 309 306 305 306 307 313 317 317 316 317 317 318 317 315 315 314 313 313 310 312 314 315 317 318 320 320 320 320 320 320 320 321 321 322 323 324 324 327 328
311 311 310 308 306 305 303 304 305 311 313 314 315 316 316 316 314 313 311 310 308 309 308 306 309 311 313 314 316 316 316 316 316 317 318 318 317 317 321 323 323 323 326
308 309 307 305 304 303 302 302 302 308 312 313 312 313 314 315 312 312 310 309 308 307 306 306 308 307 308 310 312 313 315 315 315 315 315 316 315 315 317 319 320 320 322
307 307 306 303 302 301 300 300 301 301 304 309 310 313 312 312 311 309 308 307 308 306 305 304 305 305 306 305 307 308 310 312 313 313 314 314 314 313 313 315 316 318 319
306 303 303 302 301 301 300 300 301 301 302 303 303 305 303 309 310 309 308 306 305 305 304 303 303 303 304 305 303 302 305 308 310 311 312 312 313 313 312 312 314 314 314
305 304 303 302 302 302 301 301 301 300 300 302 301 300 299 298 301 308 306 305 304 304 304 303 301 302 302 303 302 302 301 302 306 308 310 311 312 312 312 311 311 312 312
307 305 304 303 302 302 301 301 299 300 300 299 302 299 301 300 296 295 303 304 305 304 303 302 301 301 302 302 300 298 298 300 303 305 307 309 310 310 311 310 309 310 311
309 307 305 304 303 302 302 301 301 300 301 299 299 299 299 299 299 296 293 298 302 301 301 300 300 300 301 301 301 302 298 298 301 303 305 308 309 308 308 308 307 307 308
310 309 307 305 305 303 302 302 302 301 300 300 299 299 297 296 297 297 295 295 295 298 299 299 299 299 301 300 301 297 297 298 299 301 304 306 307 306 305 306 306 306 306
308 308 308 307 305 305 304 302 301 301 300 299 299 298 298 297 297 296 294 293 293 295 296 298 298 299 299 300 299 298 298 299 299 300 302 304 304 304 303 303 304 304 304
308 309 308 307 306 305 304 302 301 301 301 300 299 299 298 297 298 297 295 293 291 293 295 295 298 298 299 299 299 299 296 298 298 299 300 301 301 301 301 302 302 303 302
308 307 307 306 306 305 304 303 301 300 300 300 299 299 298 298 298 297 296 295 292 288 290 296 295 298 298 298 298 297 296 299 299 298 298 298 298 298 299 300 300 301 301
308 307 306 306 306 305 304 303 302 301 300 300 299 298 297 298 297 297 297 296 294 292 288 294 296 296 297 296 298 297 296 299 298 298 298 298 297 297 298 298 300 300 300
307 306 306 305 305 304 305 304 303 302 300 300 300 298 297 297 296 296 296 295 294 293 290 292 295 296 295 294 295 295 296 294 294 297 298 297 297 297 297 298 298 299 299
304 303 303 302 302 302 302 302 301 302 301 300 300 299 298 298 296 296 296 294 294 294 292 289 293 293 294 294 294 293 294 294 293 295 296 296 296 297 297 297 297 298 298
302 302 301 301 300 300 300 300 300 300 299 299 299 299 299 299 298 297 295 294 294 294 293 291 290 293 293 294 292 293 292 292 293 295 296 296 296 296 297 297 297 297 297
300 299 299 299 299 299 299 299 299 299 298 299 299 299 298 298 297 297 296 296 295 293 293 291 290 291 291 292 292 289 289 290 290 292 294 294 294 295 296 297 297 296 296
296 296 295 296 296 296 296 297 297 295 296 296 298 299 298 298 298 298 296 295 295 294 292 291 290 290 290 289 288 290 288 289 289 291 290 290 290 290 291 294 294 295 295
294 294 294 294 294 294 297 298 297 295 295 295 295 296 298 298 298 300 299 298 296 293 292 291 290 289 289 290 290 289 288 286 285 292 289 288 290 289 289 290 293 294 295
293 293 293 293 293 293 297 297 297 294 294 294 294 295 295 296 297 297 298 298 297 297 297 293 291 291 290 291 291 289 288 287 287 290 289 286 289 287 289 290 294 294 293
292 292 292 293 293 293 297 297 296 294 293 293 293 293 293 293 295 295 294 293 294 294 294 294 293 293 292 293 292 291 290 289 289 290 290 284 288 286 288 289 294 294 293
292 292 292 292 291 292 295 295 294 292 292 292 293 293 293 292 295 296 293 291 291 292 296 297 296 296 297 297 295 290 287 286 285 287 290 288 286 285 287 286 288 293 293
291 291 291 291 292 291 293 295 294 291 290 291 292 292 294 294 296 296 292 290 288 289 291 291 293 294 294 294 297 292 289 286 285 285 288 286 284 284 282 285 286 285 284
Wind_Speed
3 3 4 4 4 5 5 5 5 6 5 5 4 4 8 8 2 4 3 14 14 13 13 13 12 11 12 13 13 13 13 14 16 14 13 14 14 13 14 13 11 11 12
4 4 4 4 5 5 5 4 4 4 4 3 10 7 6 3 4 5 4 5 13 13 13 13 13 13 13 11 12 14 12 14 12 13 13 14 14 14 14 14 16 17 15
4 4 3 4 5 5 6 5 5 4 3 8 5 4 3 2 3 6 4 3 7 11 13 13 13 13 13 12 9 9 10 11 10 12 12 12 13 13 15 15 15 15 20
4 3 3 4 4 4 5 5 5 3 5 3 2 2 1 2 2 3 3 3 3 3 8 10 11 11 10 9 9 9 10 10 10 10 10 11 12 13 13 13 13 17 18
4 3 4 4 4 3 4 4 3 4 3 1 2 1 3 0 1 1 2 3 3 3 2 5 7 9 9 8 9 8 8 8 9 10 10 10 11 11 11 13 13 13 17
3 3 3 3 3 3 3 3 3 2 2 1 1 2 3 2 2 2 2 2 1 1 2 3 1 5 6 8 9 10 10 9 9 10 9 9 8 9 11 10 12 11 13
2 2 2 3 2 3 3 3 3 3 1 2 4 5 5 5 4 3 3 3 2 1 2 2 2 3 3 3 7 10 10 11 10 10 10 10 9 8 9 11 10 11 13
1 1 2 2 2 2 2 3 4 3 1 2 3 4 4 4 5 5 4 4 3 2 2 2 3 3 3 2 3 5 10 11 12 11 11 11 10 9 8 9 13 13 11
2 1 0 1 1 2 2 2 2 3 3 1 3 2 3 2 4 4 5 4 4 4 3 3 4 4 3 3 3 4 6 7 9 10 11 11 11 10 9 9 11 13 12
4 3 3 3 2 2 3 2 2 3 2 3 1 1 3 3 3 4 3 5 5 6 6 4 4 5 5 3 2 2 2 6 8 8 8 8 9 9 9 10 10 12 13
5 5 5 4 4 3 2 3 3 3 2 3 3 3 3 4 5 4 5 3 3 5 5 4 4 4 5 4 4 4 3 5 7 8 10 10 9 7 8 10 9 10 13
4 6 5 5 5 4 4 3 3 4 4 4 3 3 4 4 2 4 5 6 7 3 4 4 5 5 5 4 7 2 4 6 8 9 10 11 10 8 8 9 9 9 12
3 4 5 5 5 5 5 4 4 5 5 5 6 5 4 5 5 5 5 7 6 5 3 5 6 5 5 5 6 8 8 9 9 11 12 12 11 11 10 10 10 10 11
3 4 4 6 6 6 5 5 5 5 6 6 8 7 5 5 5 5 6 5 6 6 5 7 3 4 5 5 6 10 6 12 12 13 13 13 12 12 13 12 11 11 10
4 5 6 7 7 7 6 6 5 7 7 7 7 8 8 7 6 6 6 6 7 5 7 6 4 5 4 4 7 7 8 13 14 14 14 14 14 14 14 14 12 12 11
5 6 6 7 7 7 7 7 7 8 9 7 7 10 9 7 8 7 7 8 8 9 9 5 5 4 5 5 6 8 9 12 15 17 17 16 16 15 15 15 14 14 13
5 6 6 7 8 8 8 8 9 10 11 10 10 10 12 10 8 8 7 8 9 9 12 9 9 8 6 8 8 7 8 9 9 18 18 17 17 17 17 16 16 16 15
4 5 6 7 8 8 8 9 9 9 10 11 11 11 13 8 12 11 9 11 11 11 11 16 10 8 10 9 8 9 9 9 8 14 18 18 18 18 18 18 17 17 16
5 5 6 7 7 7 8 9 9 10 10 11 12 12 12 12 13 10 11 11 11 10 11 12 12 9 9 7 8 9 9 9 8 13 19 20 20 20 20 19 19 19 17
6 6 7 8 7 8 8 8 8 9 10 11 12 12 12 13 13 13 12 13 12 12 12 12 12 11 10 9 8 8 9 9 9 9 15 16 15 16 20 21 21 19 18
6 6 7 7 7 7 6 7 8 11 12 13 13 13 12 13 14 15 10 12 13 12 11 12 12 11 11 10 11 10 10 8 8 8 8 7 7 8 10 19 20 20 19
6 6 7 8 8 6 8 8 10 10 12 13 13 13 13 11 13 18 22 25 21 16 16 12 13 15 16 13 11 11 11 8 9 7 9 9 7 8 6 5 13 17 18
7 7 7 8 9 9 10 12 14 10 11 12 13 12 12 10 11 13 17 21 22 26 28 19 19 18 17 14 14 14 13 11 12 4 4 6 5 7 7 8 16 16 17
7 7 8 8 9 8 13 13 15 11 10 11 11 12 13 13 12 13 15 15 16 15 15 13 19 21 19 16 15 14 14 12 9 7 6 8 6 8 5 5 16 17 16
7 7 7 9 10 10 13 15 14 10 10 12 11 11 12 13 17 20 15 15 17 15 15 23 26 29 30 30 22 8 10 11 11 9 8 10 6 6 6 4 5 15 15
7 7 8 9 12 11 13 14 12 8 11 10 11 12 17 16 18 18 14 15 17 17 16 17 15 18 21 22 29 19 12 13 11 7 9 8 7 5 2 5 7 4 4
Wind_Direction
23 11 31 14 16 356 7 0 8 354 360 356 15 6 47 53 35 98 82 43 40 37 33 34 33 28 34 43 47 46 36 38 29 33 37 45 38 35 26 22 360 341 333
15 21 19 24 18 7 0 4 3 358 357 4 45 27 34 20 51 68 58 60 52 45 42 40 38 33 29 28 35 37 23 27 19 21 30 37 35 24 19 19 17 13 351
28 12 38 24 13 7 355 12 6 3 40 43 51 35 10 282 166 128 137 196 123 66 47 41 39 37 31 27 26 28 25 28 21 29 32 30 27 18 10 20 13 5 9
23 39 39 40 6 8 3 359 4 350 65 46 40 52 308 96 69 69 62 60 54 49 78 47 42 38 33 34 32 29 30 21 18 13 6 19 18 11 0 9 6 11 16
16 44 37 40 20 13 17 351 20 341 47 131 66 23 289 344 115 126 93 74 70 28 30 100 66 43 34 33 29 29 31 29 21 12 12 15 22 10 1 15 16 12 19
28 31 60 42 4 23 21 359 355 4 357 15 242 235 250 246 241 251 179 186 86 4 26 359 160 102 50 29 24 17 13 13 13 10 4 360 12 10 1 357 8 4 16
32 40 49 36 7 27 16 350 324 320 14 337 291 224 223 238 240 238 245 259 188 264 346 343 346 330 131 106 35 17 9 2 0 1 357 353 352 357 357 354 340 355 10
0 76 31 31 5 349 3 354 352 322 306 5 326 315 289 192 216 224 240 261 266 273 281 291 317 320 310 337 66 13 10 1 354 353 349 346 338 340 342 347 347 336 343
205 211 255 305 305 314 339 335 353 345 335 32 1 330 313 291 356 148 224 238 242 249 242 226 237 246 253 270 230 135 29 356 347 344 341 339 334 331 339 342 341 338 339
220 218 250 249 271 295 295 319 345 342 323 315 337 228 286 315 317 312 177 216 224 250 258 245 244 232 232 242 156 189 329 331 329 329 325 326 323 327 334 335 335 334 332
231 229 238 243 258 259 279 299 297 284 304 298 301 317 261 258 251 263 294 288 194 228 237 266 264 237 221 236 238 180 190 293 312 317 313 312 314 322 326 322 323 328 328
224 226 232 248 256 259 252 246 247 257 265 263 266 263 256 278 275 253 270 279 286 284 259 226 241 243 237 219 235 192 234 268 292 301 302 299 302 308 307 312 306 315 322
242 243 227 240 244 238 241 244 245 245 246 248 251 250 248 254 271 275 279 278 280 293 276 254 230 229 234 222 238 190 236 256 276 287 290 292 296 298 293 296 301 303 314
282 273 255 248 251 251 245 240 248 248 251 249 252 254 256 253 244 248 252 273 284 259 249 248 198 214 220 221 227 185 231 253 253 267 279 286 287 286 285 284 292 291 297
272 272 265 264 263 257 255 255 253 257 251 244 246 247 245 244 244 243 242 241 244 268 267 255 204 180 215 218 222 212 228 244 248 257 267 272 276 278 279 277 274 280 285
265 267 269 267 266 264 263 258 254 254 256 253 245 243 244 241 241 235 230 237 237 244 259 247 253 197 194 232 226 222 243 252 258 257 262 262 265 266 267 269 266 269 272
295 289 289 287 282 277 269 257 251 253 257 260 254 253 252 246 247 240 233 233 237 238 250 256 257 259 227 220 234 226 232 241 248 252 253 252 258 260 261 262 262 263 266
314 309 306 298 293 290 288 285 284 282 276 273 267 258 260 252 251 249 243 238 237 238 243 255 247 248 240 228 236 239 240 236 238 245 251 253 253 255 255 256 256 258 261
333 325 314 311 312 312 306 298 293 291 286 280 277 272 268 262 258 245 243 243 243 242 242 250 254 251 249 237 229 233 237 242 249 249 254 256 255 253 252 251 252 253 257
330 330 325 318 312 306 298 292 288 287 283 279 278 274 272 268 264 263 255 251 247 244 243 247 250 248 239 235 234 236 239 230 235 236 243 243 243 248 250 251 250 252 251
328 323 315 306 305 303 299 307 305 300 295 291 285 276 272 270 264 262 269 268 262 256 249 248 251 250 239 232 229 231 238 238 239 225 224 227 227 230 240 252 250 245 243
317 316 311 312 311 304 315 304 297 295 293 290 288 287 287 277 268 263 259 257 254 261 262 251 252 248 245 238 236 229 229 227 246 208 226 230 219 235 231 228 233 227 233
323 318 313 311 307 307 305 303 301 295 290 287 287 289 289 286 282 281 276 271 264 257 251 258 262 253 254 244 240 235 225 218 229 216 193 229 212 228 217 235 246 244 240
317 314 308 309 306 301 302 305 308 297 291 293 295 296 294 294 289 291 294 293 285 278 271 255 252 260 257 255 247 235 230 230 236 226 191 231 218 231 234 210 234 242 240
306 303 306 302 299 296 304 304 306 304 294 293 291 289 290 291 289 290 292 290 288 286 279 272 265 260 259 256 251 243 228 222 231 227 220 225 216 224 228 224 230 245 244
296 297 290 287 286 287 286 292 302 295 295 297 297 296 292 289 296 301 297 297 294 292 292 287 281 274 260 260 249 237 228 222 223 232 208 208 200 182 237 216 230 221 179